• In Germany
  • List of Countries
  • For 7 days
  • Water Temperature
  • Satellite Maps
  • Weather Map
  • Weather Widgets
  • user-avatar
    Login

    Hourly Weather Stropicy

    Today, 14 August, Tuesday

    Time Temperature Precipitation Wind Pressure Humidity
    00:00 +12°C° 0 mm 3 mps 754 mmHg 81%
    01:00 +12°C° 0 mm 3 mps 755 mmHg 82%
    02:00 +12°C° 0 mm 2 mps 755 mmHg 85%
    03:00 +12°C° 0 mm 2 mps 755 mmHg 86%
    04:00 +12°C° 0 mm 2 mps 755 mmHg 87%
    05:00 +12°C° 0 mm 2 mps 755 mmHg 89%
    06:00 +14°C° 0 mm 2 mps 756 mmHg 82%
    07:00 +15°C° 0 mm 2 mps 756 mmHg 74%
    08:00 +17°C° 0 mm 2 mps 756 mmHg 67%
    09:00 +18°C° 0 mm 2 mps 756 mmHg 62%
    10:00 +19°C° 0 mm 2 mps 756 mmHg 57%
    11:00 +21°C° 0 mm 2 mps 756 mmHg 51%
    12:00 +21°C° 0 mm 2 mps 756 mmHg 49%
    13:00 +23°C° 0 mm 2 mps 756 mmHg 48%
    14:00 +23°C° 0 mm 2 mps 756 mmHg 46%
    15:00 +23°C° 0 mm 1 mps 756 mmHg 47%
    16:00 +23°C° 0 mm 1 mps 755 mmHg 49%
    17:00 +22°C° 0 mm 1 mps 755 mmHg 51%
    18:00 +21°C° 0 mm 1 mps 755 mmHg 57%
    19:00 +19°C° 0 mm 2 mps 755 mmHg 63%
    20:00 +17°C° 0 mm 2 mps 755 mmHg 69%
    21:00 +17°C° 0.6 mm 3 mps 754 mmHg 75%
    22:00 +16°C° 0.6 mm 3 mps 754 mmHg 81%
    23:00 +14°C° 0.6 mm 3 mps 754 mmHg 87%

    Tomorrow, 15 August, Wednesday

    Time Temperature Precipitation Wind Pressure Humidity
    00:00 +14°C° 1 mm 3 mps 753 mmHg 90%
    01:00 +14°C° 1 mm 3 mps 753 mmHg 92%
    02:00 +14°C° 1 mm 4 mps 752 mmHg 94%
    03:00 +14°C° 0.4 mm 4 mps 752 mmHg 95%
    04:00 +14°C° 0.4 mm 4 mps 751 mmHg 96%
    05:00 +14°C° 0.4 mm 4 mps 751 mmHg 96%
    06:00 +14°C° 1.1 mm 4 mps 751 mmHg 96%
    07:00 +14°C° 1.1 mm 4 mps 751 mmHg 96%
    08:00 +14°C° 1.1 mm 3 mps 750 mmHg 96%
    09:00 +16°C° 1 mm 3 mps 751 mmHg 96%
    10:00 +16°C° 1 mm 3 mps 751 mmHg 95%
    11:00 +16°C° 1 mm 3 mps 751 mmHg 95%
    12:00 +16°C° 0.4 mm 3 mps 752 mmHg 93%
    13:00 +17°C° 0.4 mm 3 mps 752 mmHg 91%
    14:00 +17°C° 0.4 mm 3 mps 753 mmHg 90%
    15:00 +17°C° 0 mm 2 mps 753 mmHg 89%
    16:00 +18°C° 0 mm 2 mps 753 mmHg 88%
    17:00 +18°C° 0 mm 2 mps 754 mmHg 87%
    18:00 +18°C° 0 mm 1 mps 754 mmHg 89%
    19:00 +16°C° 0 mm 1 mps 755 mmHg 91%
    20:00 +15°C° 0 mm 1 mps 755 mmHg 93%
    21:00 +15°C° 0 mm 1 mps 755 mmHg 93%
    22:00 +14°C° 0 mm 1 mps 756 mmHg 94%
    23:00 +14°C° 0 mm 1 mps 756 mmHg 94%

    Day after tomorrow, 16 August, Thursday

    Time Temperature Precipitation Wind Pressure Humidity
    00:00 +14°C° 0 mm 1 mps 757 mmHg 94%
    01:00 +14°C° 0 mm 1 mps 757 mmHg 93%
    02:00 +14°C° 0 mm 1 mps 757 mmHg 93%
    03:00 +13°C° 0 mm 1 mps 758 mmHg 93%
    04:00 +13°C° 0 mm 1 mps 758 mmHg 94%
    05:00 +12°C° 0 mm 0 mps 758 mmHg 94%
    06:00 +14°C° 0 mm 0 mps 759 mmHg 89%
    07:00 +16°C° 0 mm 0 mps 759 mmHg 84%
    08:00 +17°C° 0 mm 0 mps 759 mmHg 79%
    09:00 +19°C° 0 mm 0 mps 760 mmHg 71%
    10:00 +21°C° 0 mm 0 mps 760 mmHg 64%
    11:00 +22°C° 0 mm 0 mps 760 mmHg 56%
    12:00 +23°C° 0 mm 0 mps 760 mmHg 54%
    13:00 +23°C° 0 mm 0 mps 760 mmHg 52%
    14:00 +25°C° 0 mm 1 mps 760 mmHg 49%
    15:00 +25°C° 0 mm 1 mps 760 mmHg 51%
    16:00 +24°C° 0 mm 1 mps 760 mmHg 52%
    17:00 +24°C° 0 mm 1 mps 760 mmHg 54%
    18:00 +22°C° 0 mm 1 mps 761 mmHg 61%
    19:00 +20°C° 0 mm 1 mps 761 mmHg 68%
    20:00 +18°C° 0 mm 1 mps 761 mmHg 75%
    21:00 +18°C° 0 mm 1 mps 761 mmHg 77%
    22:00 +16°C° 0 mm 1 mps 762 mmHg 79%
    23:00 +16°C° 0 mm 1 mps 762 mmHg 82%

    17 August, Friday

    Time Temperature Precipitation Wind Pressure Humidity
    00:00 +15°C° 0 mm 1 mps 762 mmHg 83%
    01:00 +15°C° 0 mm 2 mps 762 mmHg 85%
    02:00 +15°C° 0 mm 2 mps 762 mmHg 87%
    03:00 +15°C° 0 mm 2 mps 762 mmHg 88%
    04:00 +14°C° 0 mm 2 mps 762 mmHg 89%
    05:00 +14°C° 0 mm 2 mps 762 mmHg 90%
    06:00 +16°C° 0 mm 2 mps 762 mmHg 84%
    07:00 +17°C° 0 mm 3 mps 763 mmHg 78%
    08:00 +19°C° 0 mm 3 mps 763 mmHg 71%
    09:00 +20°C° 0 mm 3 mps 763 mmHg 66%
    10:00 +22°C° 0 mm 3 mps 763 mmHg 60%
    11:00 +24°C° 0 mm 3 mps 762 mmHg 54%
    12:00 +25°C° 0 mm 3 mps 762 mmHg 52%
    13:00 +25°C° 0 mm 3 mps 762 mmHg 51%
    14:00 +26°C° 0 mm 3 mps 762 mmHg 49%
    15:00 +26°C° 0 mm 3 mps 761 mmHg 51%
    16:00 +25°C° 0 mm 3 mps 761 mmHg 53%
    17:00 +25°C° 0 mm 3 mps 761 mmHg 55%
    18:00 +22°C° 0 mm 3 mps 761 mmHg 62%
    19:00 +21°C° 0 mm 2 mps 761 mmHg 70%
    20:00 +19°C° 0 mm 2 mps 761 mmHg 78%
    21:00 +18°C° 0 mm 3 mps 761 mmHg 79%
    22:00 +18°C° 0 mm 3 mps 761 mmHg 81%
    23:00 +17°C° 0 mm 3 mps 761 mmHg 82%

    18 August, Saturday

    Time Temperature Precipitation Wind Pressure Humidity
    00:00 +17°C° 0 mm 3 mps 760 mmHg 82%
    01:00 +16°C° 0 mm 3 mps 760 mmHg 82%
    02:00 +16°C° 0 mm 3 mps 760 mmHg 82%
    03:00 +16°C° 0 mm 3 mps 760 mmHg 84%
    04:00 +16°C° 0 mm 3 mps 760 mmHg 85%
    05:00 +14°C° 0 mm 3 mps 760 mmHg 86%
    06:00 +17°C° 0 mm 3 mps 760 mmHg 82%
    07:00 +18°C° 0 mm 3 mps 760 mmHg 78%
    08:00 +20°C° 0 mm 3 mps 760 mmHg 74%
    09:00 +21°C° 0 mm 4 mps 759 mmHg 69%
    10:00 +23°C° 0 mm 4 mps 759 mmHg 64%
    11:00 +26°C° 0 mm 4 mps 759 mmHg 59%
    12:00 +26°C° 0 mm 4 mps 759 mmHg 57%
    13:00 +27°C° 0 mm 4 mps 758 mmHg 55%
    14:00 +27°C° 0 mm 4 mps 758 mmHg 53%
    15:00 +27°C° 0.1 mm 4 mps 758 mmHg 56%
    16:00 +27°C° 0.1 mm 3 mps 757 mmHg 60%
    17:00 +26°C° 0.1 mm 3 mps 757 mmHg 63%
    18:00 +25°C° 0.1 mm 3 mps 757 mmHg 70%
    19:00 +22°C° 0.1 mm 3 mps 757 mmHg 77%
    20:00 +20°C° 0.1 mm 2 mps 757 mmHg 85%
    21:00 +20°C° 0 mm 3 mps 757 mmHg 88%
    22:00 +19°C° 0 mm 3 mps 757 mmHg 91%
    23:00 +19°C° 0 mm 3 mps 757 mmHg 94%

    19 August, Sunday

    Time Temperature Precipitation Wind Pressure Humidity
    00:00 +18°C° 0 mm 3 mps 757 mmHg 95%
    01:00 +17°C° 0 mm 3 mps 757 mmHg 96%
    02:00 +17°C° 0 mm 2 mps 757 mmHg 97%
    03:00 +16°C° 0 mm 3 mps 757 mmHg 96%
    04:00 +16°C° 0 mm 3 mps 756 mmHg 94%
    05:00 +16°C° 0 mm 3 mps 756 mmHg 93%
    06:00 +15°C° 0 mm 4 mps 756 mmHg 88%
    07:00 +17°C° 0 mm 4 mps 756 mmHg 83%
    08:00 +17°C° 0 mm 5 mps 756 mmHg 78%
    09:00 +19°C° 0.2 mm 5 mps 756 mmHg 77%
    10:00 +19°C° 0.2 mm 5 mps 756 mmHg 76%
    11:00 +20°C° 0.2 mm 5 mps 755 mmHg 76%
    12:00 +19°C° 0.5 mm 5 mps 755 mmHg 81%
    13:00 +19°C° 0.5 mm 5 mps 755 mmHg 86%
    14:00 +17°C° 0.5 mm 5 mps 755 mmHg 92%
    15:00 +17°C° 0.2 mm 5 mps 756 mmHg 91%
    16:00 +19°C° 0.2 mm 5 mps 756 mmHg 91%
    17:00 +19°C° 0.2 mm 5 mps 756 mmHg 90%
    18:00 +18°C° 0 mm 4 mps 756 mmHg 90%
    19:00 +18°C° 0 mm 4 mps 756 mmHg 91%
    20:00 +17°C° 0 mm 4 mps 756 mmHg 91%
    21:00 +15°C° 0 mm 4 mps 756 mmHg 91%
    22:00 +16°C° 0 mm 3 mps 756 mmHg 91%
    23:00 +14°C° 0 mm 3 mps 756 mmHg 92%
    Show more